ASA73 PASI-PAJN

Flight info

Callsign ASA73
Flight time 0h 23m
Altitude 12000
Route HAWRD5 TNAKY
Aircraft B737/M-SDE3FGIRW/LB1

Departure

Time 2026-04-26 18:17
Airport Sitka Rocky Gutierrez Airport (PASI)

Arrival

Time 2026-04-26 18:40
Airport Juneau International Airport (PAJN)
Time Latitude Longitude Altitude Speed Heading
2026-04-26 17:53 57.05235 -135.36604 34 ft 0 kts 76°
2026-04-26 18:08 57.05233 -135.36617 34 ft 4 kts 76°
2026-04-26 18:08 57.05227 -135.36664 33 ft 4 kts 76°
2026-04-26 18:08 57.05221 -135.36710 34 ft 2 kts 76°
2026-04-26 18:09 57.05217 -135.36752 34 ft 4 kts 97°
2026-04-26 18:09 57.05225 -135.36797 31 ft 4 kts 123°
2026-04-26 18:09 57.05242 -135.36835 33 ft 4 kts 136°
2026-04-26 18:09 57.05247 -135.36844 33 ft 0 kts 135°
2026-04-26 18:11 57.05245 -135.36840 33 ft 2 kts 135°
2026-04-26 18:12 57.05229 -135.36811 31 ft 5 kts 135°
2026-04-26 18:12 57.05195 -135.36751 33 ft 9 kts 136°
2026-04-26 18:12 57.05143 -135.36658 33 ft 12 kts 136°
2026-04-26 18:12 57.05078 -135.36541 33 ft 14 kts 135°
2026-04-26 18:13 57.05008 -135.36415 33 ft 14 kts 135°
2026-04-26 18:13 57.04934 -135.36317 34 ft 13 kts 164°
2026-04-26 18:13 57.04845 -135.36311 35 ft 13 kts 179°
2026-04-26 18:13 57.04816 -135.36309 35 ft 13 kts 177°
2026-04-26 18:14 57.04698 -135.36140 35 ft 16 kts 136°
2026-04-26 18:14 57.04611 -135.35982 36 ft 20 kts 135°
2026-04-26 18:14 57.04502 -135.35784 35 ft 24 kts 136°
2026-04-26 18:14 57.04398 -135.35599 33 ft 19 kts 135°
2026-04-26 18:15 57.04305 -135.35430 35 ft 20 kts 136°
2026-04-26 18:15 57.04237 -135.35308 37 ft 22 kts 135°
2026-04-26 18:15 57.04115 -135.35088 35 ft 17 kts 135°
2026-04-26 18:15 57.04040 -135.34989 35 ft 12 kts 144°
2026-04-26 18:16 57.04033 -135.34936 35 ft 4 kts 348°
2026-04-26 18:16 57.04040 -135.34951 35 ft 8 kts 312°
2026-04-26 18:16 57.04352 -135.35514 34 ft 118 kts 315°
2026-04-26 18:17 57.05125 -135.36874 435 ft 182 kts 317°
2026-04-26 18:17 57.06142 -135.38571 1463 ft 211 kts 314°
2026-04-26 18:17 57.07059 -135.40637 2992 ft 215 kts 307°
2026-04-26 18:17 57.07997 -135.42769 4053 ft 215 kts 309°
2026-04-26 18:18 57.08943 -135.44870 4902 ft 217 kts 309°
2026-04-26 18:18 57.09932 -135.47042 5440 ft 229 kts 313°
2026-04-26 18:18 57.11116 -135.48995 6183 ft 231 kts 320°
2026-04-26 18:18 57.12366 -135.50844 6990 ft 233 kts 321°
2026-04-26 18:19 57.13720 -135.52747 7484 ft 255 kts 329°
2026-04-26 18:19 57.15442 -135.53712 8344 ft 266 kts 354°
2026-04-26 18:19 57.17310 -135.53299 9325 ft 276 kts 12°
2026-04-26 18:19 57.19181 -135.52300 10276 ft 284 kts 14°
2026-04-26 18:20 57.21152 -135.51218 10690 ft 310 kts 14°
2026-04-26 18:20 57.23322 -135.50053 10937 ft 338 kts 14°
2026-04-26 18:20 57.25627 -135.48824 11596 ft 348 kts 14°
2026-04-26 18:20 57.27179 -135.48002 11908 ft 352 kts 14°
2026-04-26 18:21 57.30414 -135.46304 12003 ft 375 kts 13°
2026-04-26 18:21 57.32942 -135.44973 11992 ft 379 kts 14°
2026-04-26 18:21 57.35451 -135.43650 11989 ft 380 kts 14°
2026-04-26 18:21 57.37996 -135.42307 11997 ft 379 kts 14°
2026-04-26 18:22 57.40533 -135.40975 12001 ft 378 kts 14°
2026-04-26 18:22 57.43064 -135.39635 11997 ft 378 kts 14°
2026-04-26 18:22 57.45599 -135.38286 12005 ft 379 kts 14°
2026-04-26 18:22 57.48139 -135.36935 11986 ft 379 kts 14°
2026-04-26 18:23 57.50674 -135.35584 12000 ft 379 kts 14°
2026-04-26 18:23 57.53214 -135.34230 11990 ft 380 kts 14°
2026-04-26 18:23 57.55716 -135.32895 11994 ft 379 kts 14°
2026-04-26 18:23 57.58252 -135.31539 12008 ft 379 kts 14°
2026-04-26 18:24 57.60798 -135.30176 11991 ft 380 kts 14°
2026-04-26 18:24 57.63345 -135.28812 12004 ft 381 kts 14°
2026-04-26 18:24 57.65893 -135.27442 11996 ft 381 kts 14°
2026-04-26 18:24 57.68443 -135.26070 11990 ft 381 kts 14°
2026-04-26 18:25 57.70998 -135.24695 11979 ft 381 kts 14°
2026-04-26 18:25 57.73539 -135.23325 11990 ft 380 kts 14°
2026-04-26 18:25 57.76085 -135.21950 11988 ft 380 kts 14°
2026-04-26 18:25 57.78623 -135.20577 11989 ft 380 kts 14°
2026-04-26 18:26 57.81160 -135.19201 12005 ft 378 kts 14°
2026-04-26 18:26 57.83615 -135.17865 11814 ft 368 kts 14°
2026-04-26 18:26 57.86073 -135.16537 11275 ft 365 kts 14°
2026-04-26 18:26 57.88447 -135.15252 10819 ft 344 kts 14°
2026-04-26 18:27 57.90665 -135.14033 10551 ft 324 kts 14°
2026-04-26 18:27 57.92776 -135.12873 10372 ft 305 kts 13°
2026-04-26 18:27 57.94754 -135.11790 10233 ft 290 kts 13°
2026-04-26 18:27 57.96650 -135.10756 10101 ft 278 kts 13°
2026-04-26 18:28 57.98465 -135.09766 9949 ft 266 kts 13°
2026-04-26 18:28 58.00238 -135.08797 9602 ft 264 kts 13°
2026-04-26 18:28 58.01988 -135.07838 9278 ft 261 kts 13°
2026-04-26 18:28 58.03726 -135.06885 8930 ft 259 kts 13°
2026-04-26 18:29 58.05453 -135.05946 8595 ft 257 kts 11°
2026-04-26 18:29 58.07206 -135.05532 8296 ft 251 kts 359°
2026-04-26 18:29 58.08949 -135.05492 7951 ft 250 kts 357°
2026-04-26 18:29 58.10689 -135.05493 7612 ft 250 kts 358°
2026-04-26 18:30 58.12420 -135.05480 7269 ft 247 kts 358°
2026-04-26 18:30 58.14124 -135.05449 6944 ft 242 kts 359°
2026-04-26 18:30 58.15812 -135.05403 6633 ft 244 kts 359°
2026-04-26 18:30 58.17516 -135.05347 6304 ft 252 kts 359°
2026-04-26 18:31 58.19302 -135.05283 5950 ft 258 kts 359°
2026-04-26 18:31 58.21095 -135.05215 5587 ft 257 kts 359°
2026-04-26 18:31 58.22880 -135.05128 5234 ft 254 kts
2026-04-26 18:31 58.24582 -135.04657 5059 ft 240 kts
2026-04-26 18:32 58.26169 -135.04086 4918 ft 224 kts
2026-04-26 18:32 58.27654 -135.03560 4808 ft 209 kts
2026-04-26 18:32 58.29055 -135.03080 4744 ft 199 kts
2026-04-26 18:32 58.30362 -135.02639 4663 ft 182 kts
2026-04-26 18:33 58.31562 -135.02238 4575 ft 168 kts
2026-04-26 18:33 58.32693 -135.01864 4441 ft 165 kts
2026-04-26 18:33 58.33832 -135.01488 4269 ft 166 kts
2026-04-26 18:33 58.34953 -135.00979 4056 ft 169 kts 26°
2026-04-26 18:34 58.35661 -134.99280 3853 ft 168 kts 80°
2026-04-26 18:34 58.35690 -134.97088 3731 ft 164 kts 90°
2026-04-26 18:34 58.35698 -134.94934 3528 ft 160 kts 89°
2026-04-26 18:34 58.35705 -134.92902 3377 ft 147 kts 90°
2026-04-26 18:35 58.35712 -134.90999 3206 ft 143 kts 90°
2026-04-26 18:35 58.35718 -134.89128 3031 ft 140 kts 89°
2026-04-26 18:35 58.35724 -134.87276 2878 ft 140 kts 90°
2026-04-26 18:35 58.35730 -134.85421 2705 ft 140 kts 90°
2026-04-26 18:36 58.35736 -134.83566 2515 ft 139 kts 90°
2026-04-26 18:36 58.35742 -134.81730 2327 ft 138 kts 90°
2026-04-26 18:36 58.35749 -134.79911 2142 ft 137 kts 90°
2026-04-26 18:36 58.35754 -134.78113 1958 ft 135 kts 90°
2026-04-26 18:37 58.35759 -134.76321 1779 ft 135 kts 90°
2026-04-26 18:37 58.35763 -134.74535 1594 ft 135 kts 90°
2026-04-26 18:37 58.35768 -134.72757 1411 ft 134 kts 90°
2026-04-26 18:37 58.35771 -134.71004 1218 ft 134 kts 90°
2026-04-26 18:38 58.35775 -134.69245 1028 ft 133 kts 90°
2026-04-26 18:38 58.35779 -134.67485 878 ft 132 kts 90°
2026-04-26 18:38 58.35783 -134.65735 688 ft 132 kts 90°
2026-04-26 18:38 58.35806 -134.63991 503 ft 132 kts 87°
2026-04-26 18:39 58.35861 -134.62250 327 ft 130 kts 85°
2026-04-26 18:39 58.35853 -134.60550 155 ft 128 kts 96°
2026-04-26 18:39 58.35675 -134.58892 36 ft 128 kts 104°
2026-04-26 18:39 58.35470 -134.57446 33 ft 92 kts 105°
2026-04-26 18:40 58.35343 -134.56544 35 ft 54 kts 105°
2026-04-26 18:40 58.35259 -134.55947 29 ft 40 kts 104°
2026-04-26 18:40 58.35197 -134.55499 31 ft 32 kts 105°
2026-04-26 18:40 58.35214 -134.55309 33 ft 12 kts 14°
2026-04-26 18:41 58.35276 -134.55316 32 ft 9 kts 329°
2026-04-26 18:41 58.35300 -134.55422 33 ft 9 kts 283°
2026-04-26 18:41 58.35315 -134.55534 33 ft 9 kts 285°
2026-04-26 18:41 58.35331 -134.55643 32 ft 8 kts 284°
2026-04-26 18:42 58.35345 -134.55748 32 ft 8 kts 285°
2026-04-26 18:42 58.35360 -134.55854 32 ft 9 kts 284°
2026-04-26 18:42 58.35376 -134.55980 33 ft 11 kts 284°
2026-04-26 18:42 58.35397 -134.56134 33 ft 13 kts 284°
2026-04-26 18:43 58.35422 -134.56313 33 ft 15 kts 285°
2026-04-26 18:43 58.35450 -134.56507 33 ft 15 kts 285°
2026-04-26 18:43 58.35477 -134.56692 33 ft 14 kts 285°
2026-04-26 18:43 58.35501 -134.56871 33 ft 14 kts 284°
2026-04-26 18:44 58.35524 -134.57042 31 ft 13 kts 284°
2026-04-26 18:44 58.35548 -134.57206 33 ft 13 kts 285°
2026-04-26 18:44 58.35569 -134.57364 33 ft 12 kts 284°
2026-04-26 18:44 58.35591 -134.57521 33 ft 12 kts 285°
2026-04-26 18:45 58.35613 -134.57673 33 ft 12 kts 284°
2026-04-26 18:45 58.35634 -134.57822 33 ft 11 kts 285°
2026-04-26 18:45 58.35654 -134.57966 33 ft 11 kts 285°
2026-04-26 18:45 58.35674 -134.58109 31 ft 12 kts 284°
2026-04-26 18:46 58.35695 -134.58262 32 ft 12 kts 285°
2026-04-26 18:46 58.35716 -134.58410 31 ft 11 kts 286°
2026-04-26 18:46 58.35734 -134.58539 32 ft 9 kts 286°
2026-04-26 18:46 58.35766 -134.58617 33 ft 5 kts 330°
2026-04-26 18:47 58.35794 -134.58624 32 ft 3 kts 32°
2026-04-26 18:47 58.35807 -134.58592 33 ft 3 kts 52°
2026-04-26 18:47 58.35826 -134.58568 33 ft 4 kts 17°
2026-04-26 18:47 58.35862 -134.58566 32 ft 5 kts 358°
2026-04-26 18:48 58.35879 -134.58554 33 ft 1 kts 57°
2026-04-26 18:48 58.35879 -134.58526 33 ft 3 kts 94°
2026-04-26 18:48 58.35876 -134.58492 33 ft 2 kts 102°
2026-04-26 18:48 58.35874 -134.58473 33 ft 1 kts 103°
2026-04-26 18:49 58.35872 -134.58462 33 ft 0 kts 103°